Wind_Speed
15 14 13 13 13 13 14 14 14 14 15 15 15 15 14 14 14 13 13 13 13 12 12 12 13 13 13 13 13 13 13 13 13 12 13 13 13 13 14 14 14 14 13
15 15 15 14 14 14 14 14 14 14 14 14 14 14 14 14 13 13 13 13 12 12 12 12 12 12 13 13 13 13 13 14 13 13 14 14 14 14 14 15 15 15 15
15 15 15 15 14 14 14 14 14 14 14 14 14 14 14 13 13 13 13 13 12 12 12 12 12 12 13 13 13 13 14 14 14 14 14 15 15 15 15 15 15 15 15
16 16 15 15 15 15 15 14 14 14 14 14 13 13 13 13 13 13 12 12 12 12 12 12 13 13 13 13 13 13 14 14 15 15 15 16 16 16 16 16 16 16 16
17 16 16 15 15 15 15 14 14 14 14 14 14 14 14 14 13 13 12 12 12 12 12 12 13 13 13 14 14 14 15 15 16 16 16 17 17 17 17 17 16 17 16
17 17 17 16 15 16 16 15 15 15 14 14 14 15 15 14 14 14 13 13 13 13 13 13 13 14 14 14 15 15 16 16 17 17 17 17 17 17 17 17 17 17 16
18 18 18 17 16 16 16 16 15 15 15 15 15 15 16 15 15 15 14 14 13 14 14 14 14 14 14 15 15 16 17 17 17 17 17 18 17 17 17 17 17 16 16
20 20 19 18 18 18 17 18 17 17 17 17 16 16 17 17 17 16 16 15 15 15 15 16 16 16 16 16 17 17 17 18 18 18 18 18 18 18 18 17 17 16 16
23 22 22 21 20 19 19 19 19 19 18 18 18 18 18 18 19 18 18 17 17 17 17 17 17 18 18 18 18 18 18 18 18 18 18 18 18 18 18 17 17 17 17
24 24 23 23 21 21 20 20 20 20 20 20 20 20 20 20 20 20 20 20 19 19 19 19 19 19 19 19 19 19 18 18 18 19 19 19 18 18 18 18 18 18 18
25 25 24 23 22 22 22 22 22 22 22 22 21 21 21 22 21 21 21 21 21 20 20 20 19 19 19 20 20 19 19 19 19 20 20 20 19 19 19 19 18 18 18
27 26 25 25 24 23 23 23 23 23 23 23 23 23 23 23 22 22 22 22 21 21 21 20 20 20 20 20 20 21 21 21 21 21 20 21 20 20 20 19 18 18 18
28 28 27 26 26 26 25 24 24 24 24 24 24 24 24 24 24 23 23 24 23 22 22 22 22 21 21 21 22 22 22 22 21 21 21 20 20 19 20 19 19 19 20
30 29 29 29 28 27 27 26 26 26 26 25 25 25 25 25 25 25 25 25 25 24 24 24 23 23 23 23 23 23 23 22 22 21 21 20 20 20 20 20 20 20 20
32 31 30 30 29 29 28 28 28 27 28 27 27 27 27 26 25 26 26 27 27 27 26 26 25 25 25 24 24 23 23 23 22 21 21 21 21 21 20 20 20 21 21
32 32 31 31 31 30 29 29 29 28 28 28 28 28 28 27 26 26 26 27 28 28 29 28 28 27 26 25 25 24 24 23 23 23 22 22 22 21 21 21 22 22 22
33 33 33 33 32 31 31 30 30 30 29 29 29 29 28 28 28 28 28 28 29 29 29 29 29 28 28 27 26 25 25 24 24 24 23 23 22 22 22 22 23 23 24
33 32 33 33 33 32 32 31 31 31 30 30 30 30 29 29 28 29 29 30 30 29 29 29 29 28 28 28 27 26 26 26 25 25 24 24 24 23 24 24 25 25 25
33 32 32 32 32 32 32 32 32 31 31 31 31 30 30 30 30 30 30 30 30 30 30 30 30 29 29 29 28 28 28 27 26 26 25 25 25 25 25 26 26 26 27
35 34 32 32 32 32 32 32 32 32 32 32 32 31 31 31 31 32 31 31 31 31 31 31 31 31 30 30 29 28 28 28 28 28 27 27 27 27 26 27 27 28 28
35 35 35 34 33 33 32 32 33 33 33 33 33 32 33 32 32 33 33 33 34 33 32 32 32 32 32 31 30 30 29 28 29 29 29 29 29 28 28 28 29 29 29
35 35 35 34 33 33 33 33 33 33 33 34 34 34 34 33 33 34 34 34 35 35 34 33 33 33 33 32 32 31 31 31 31 31 31 31 30 30 30 30 30 30 31
35 35 35 35 34 33 33 33 33 34 35 35 35 35 34 34 34 35 35 35 36 36 35 35 35 34 34 34 33 33 33 33 33 33 33 33 32 32 31 31 31 32 32
35 35 35 35 35 35 35 35 35 35 36 35 35 35 35 35 35 36 36 36 36 36 36 36 36 36 36 36 35 35 36 36 35 34 34 34 34 34 34 33 32 33 34
34 35 35 35 35 36 36 36 36 36 36 36 35 35 35 35 36 36 37 36 36 37 37 36 37 37 37 37 37 37 37 38 37 36 35 35 35 36 36 36 35 34 35
36 36 36 36 36 37 37 37 37 37 37 37 36 36 36 37 37 38 38 38 38 37 37 37 38 38 38 38 38 38 38 38 38 38 37 37 37 37 37 37 37 37 37
Wind_Direction
250 252 256 257 257 259 261 260 262 264 266 265 263 262 261 260 260 259 261 264 266 268 270 270 272 273 273 272 271 271 271 272 273 274 275 277 279 280 279 277 276 276 277
251 253 256 257 256 258 263 264 265 264 264 263 261 260 260 258 258 259 261 264 267 269 270 271 273 274 273 271 271 272 272 272 273 274 276 277 278 279 280 278 277 277 277
253 255 256 258 258 258 263 266 266 264 262 260 260 259 258 257 259 259 260 262 265 267 268 270 274 276 274 272 273 274 273 274 275 277 278 279 279 280 281 280 279 279 278
253 255 256 258 258 257 260 264 264 263 262 258 258 257 257 257 258 259 259 260 263 264 267 269 273 273 274 275 275 276 275 276 276 277 279 279 280 280 280 280 281 280 278
253 255 257 258 258 257 258 260 262 261 261 259 257 256 257 257 259 257 258 260 261 263 266 268 271 273 274 276 277 277 277 277 277 278 278 279 280 280 280 281 280 279 279
254 255 257 258 258 257 258 259 261 261 261 261 260 258 258 259 258 258 258 260 262 263 266 270 272 273 275 276 278 278 278 279 279 280 279 279 280 281 280 280 278 278 278
251 253 254 254 255 256 258 258 259 259 260 262 263 260 260 260 259 259 258 259 260 262 266 271 273 275 277 277 279 280 280 280 280 280 281 280 279 279 279 279 278 277 277
251 251 254 254 254 254 256 257 258 259 260 261 262 261 261 261 260 260 258 258 260 263 266 270 272 274 276 278 280 281 282 280 280 280 282 281 279 278 278 278 277 276 276
252 252 252 253 254 254 256 258 259 259 260 261 261 262 262 260 259 261 261 259 261 263 267 270 272 273 275 276 279 281 283 284 282 281 282 282 280 279 278 277 277 276 276
252 252 252 252 254 255 256 257 260 261 261 260 262 262 261 260 260 261 263 261 262 265 268 269 272 274 275 276 279 281 283 285 284 282 281 281 280 278 277 276 275 275 274
252 251 252 252 253 254 255 258 260 261 261 261 262 262 262 261 260 262 263 262 261 264 267 269 270 272 275 276 279 281 283 284 286 284 281 280 278 276 275 274 274 274 275
252 252 254 255 256 257 255 258 260 262 262 262 262 262 262 262 261 260 261 261 261 264 265 267 269 272 273 276 277 279 281 283 286 285 283 281 279 276 274 273 274 273 274
252 251 253 256 256 257 255 256 260 262 264 263 262 263 263 262 261 260 261 262 262 264 265 266 268 272 274 276 278 279 280 281 283 284 284 281 279 276 273 274 274 273 272
253 253 253 255 256 257 258 257 259 261 263 264 263 262 263 263 263 262 263 263 263 264 267 269 271 273 275 277 278 279 281 282 282 281 282 281 280 279 275 273 273 272 272
253 254 253 255 256 257 257 259 260 262 263 264 265 264 264 265 266 265 266 265 264 264 266 267 268 271 274 277 278 278 279 280 281 280 280 280 280 279 277 274 273 272 273
252 252 253 255 255 256 257 258 261 263 264 263 264 265 265 265 266 267 268 268 266 266 266 268 269 270 272 274 276 277 277 277 278 280 280 279 277 276 276 275 274 274 274
251 253 253 255 255 256 257 258 260 261 261 262 263 263 264 264 266 267 268 269 268 267 267 268 270 270 271 272 274 275 275 276 276 277 278 277 277 276 275 276 276 277 277
252 252 253 254 255 255 256 258 260 261 261 261 262 262 263 265 267 268 269 269 268 267 268 269 270 271 270 271 272 273 274 274 275 276 276 276 276 276 276 276 277 279 279
252 253 252 253 254 255 256 258 260 261 262 262 262 262 262 264 266 267 269 269 268 267 267 267 267 269 271 270 270 271 273 273 274 276 277 277 278 278 278 278 279 280 281
252 253 252 253 254 255 256 258 259 260 262 263 263 263 262 263 265 266 267 268 268 268 268 268 268 267 268 269 269 271 273 274 273 274 276 276 277 278 279 280 280 281 282
251 253 253 254 254 256 257 259 258 260 261 263 264 264 263 264 265 265 267 268 267 267 267 267 267 267 267 267 268 269 270 272 271 271 274 275 276 278 278 279 281 282 283
251 252 251 254 255 256 258 258 258 260 261 261 262 263 264 264 265 264 264 266 266 265 265 265 266 266 267 267 267 268 268 270 270 270 271 272 274 277 277 278 280 282 283
253 252 252 254 256 257 258 257 258 259 261 262 262 262 263 264 264 266 265 265 265 264 264 264 266 266 266 266 267 268 268 268 269 269 270 272 273 275 276 277 279 280 281
254 253 254 255 256 258 259 258 259 260 261 262 263 263 263 264 265 266 267 266 263 263 263 264 265 266 266 265 265 266 267 268 269 268 270 272 272 273 275 277 279 279 279
254 254 255 255 256 258 259 258 259 261 261 261 262 263 264 265 265 266 265 264 263 264 264 264 264 265 266 265 265 266 267 268 268 269 269 271 272 272 274 276 278 279 279
255 255 256 257 258 259 259 259 260 262 262 260 261 262 263 264 266 266 266 265 265 265 263 263 264 266 266 266 266 267 268 269 269 269 270 271 272 272 273 275 277 277 278
Height
5819 5819 5819 5820 5820 5820 5820 5820 5821 5821 5821 5821 5821 5821 5821 5821 5821 5822 5822 5823 5823 5823 5823 5824 5824 5824 5824 5824 5824 5824 5825 5825 5825 5825 5825 5825 5824 5824 5824 5824 5824 5824 5824
5816 5816 5817 5817 5818 5818 5818 5818 5818 5818 5818 5818 5818 5818 5819 5819 5819 5820 5820 5820 5821 5821 5821 5821 5822 5822 5822 5822 5822 5822 5822 5822 5822 5822 5822 5822 5822 5822 5821 5821 5821 5821 5821
5813 5814 5814 5815 5815 5815 5816 5816 5816 5816 5816 5816 5816 5816 5817 5817 5817 5817 5818 5818 5818 5819 5819 5819 5819 5819 5820 5820 5820 5820 5820 5820 5820 5820 5820 5820 5819 5819 5819 5818 5818 5818 5818
5810 5811 5811 5812 5812 5813 5813 5813 5813 5813 5813 5813 5814 5814 5814 5815 5815 5815 5816 5816 5816 5816 5816 5817 5817 5817 5817 5817 5817 5817 5817 5817 5817 5817 5817 5817 5817 5816 5816 5816 5815 5815 5815
5807 5808 5808 5809 5810 5810 5810 5811 5811 5811 5811 5811 5811 5812 5812 5812 5813 5813 5813 5814 5814 5814 5814 5814 5815 5815 5815 5815 5815 5815 5815 5814 5814 5814 5814 5814 5813 5813 5813 5812 5812 5812 5812
5804 5805 5805 5806 5807 5807 5808 5808 5808 5808 5808 5809 5809 5809 5810 5810 5810 5811 5811 5811 5812 5812 5812 5812 5812 5813 5813 5813 5813 5812 5812 5812 5811 5811 5811 5810 5810 5810 5809 5809 5809 5809 5809
5801 5801 5802 5803 5803 5804 5805 5805 5805 5806 5806 5806 5806 5807 5807 5807 5808 5808 5809 5809 5809 5809 5810 5810 5810 5810 5810 5810 5810 5809 5809 5809 5808 5808 5807 5807 5806 5806 5805 5805 5805 5805 5805
5797 5798 5798 5799 5800 5801 5801 5802 5802 5803 5803 5803 5804 5804 5804 5804 5805 5805 5806 5806 5806 5807 5807 5807 5807 5807 5807 5807 5807 5806 5806 5805 5805 5804 5804 5803 5802 5802 5802 5801 5801 5801 5801
5792 5794 5794 5795 5796 5797 5798 5798 5799 5799 5800 5800 5801 5801 5801 5802 5802 5802 5803 5803 5803 5804 5804 5804 5804 5804 5804 5804 5803 5803 5802 5801 5801 5800 5800 5799 5798 5798 5797 5798 5797 5798 5798
5788 5789 5790 5791 5792 5793 5794 5794 5795 5796 5796 5797 5797 5797 5798 5798 5798 5799 5799 5800 5800 5800 5800 5800 5800 5800 5800 5800 5799 5799 5798 5798 5797 5796 5795 5794 5794 5793 5793 5793 5793 5794 5794
5783 5784 5785 5786 5788 5789 5790 5790 5791 5791 5792 5792 5793 5793 5794 5794 5795 5795 5795 5795 5796 5796 5796 5796 5796 5796 5796 5796 5795 5795 5794 5794 5793 5791 5790 5789 5789 5788 5788 5788 5789 5789 5790
5778 5780 5781 5782 5783 5784 5785 5786 5786 5787 5787 5788 5788 5789 5789 5790 5790 5791 5791 5791 5792 5792 5792 5792 5792 5792 5792 5791 5791 5791 5790 5789 5788 5787 5785 5784 5783 5783 5783 5784 5784 5785 5785
5773 5774 5775 5777 5778 5779 5779 5780 5781 5782 5782 5783 5783 5784 5784 5785 5785 5786 5786 5787 5787 5787 5787 5787 5787 5787 5787 5787 5786 5786 5785 5784 5783 5782 5781 5779 5779 5778 5778 5779 5780 5780 5781
5767 5768 5770 5771 5772 5773 5774 5775 5776 5776 5777 5777 5778 5778 5779 5779 5780 5780 5781 5781 5782 5782 5782 5782 5782 5782 5782 5782 5781 5781 5780 5779 5778 5777 5776 5775 5774 5774 5774 5774 5775 5776 5777
5760 5762 5763 5765 5766 5767 5768 5769 5770 5770 5771 5771 5772 5772 5773 5773 5774 5774 5775 5775 5776 5776 5776 5777 5777 5777 5777 5777 5776 5776 5775 5774 5774 5773 5772 5771 5770 5770 5770 5770 5770 5771 5772
5753 5755 5756 5758 5760 5761 5762 5763 5763 5764 5764 5765 5765 5766 5766 5767 5767 5768 5769 5769 5769 5770 5770 5771 5771 5771 5771 5771 5771 5770 5770 5769 5769 5768 5767 5766 5766 5765 5765 5765 5766 5766 5767
5746 5748 5749 5751 5752 5754 5755 5756 5757 5757 5758 5758 5759 5759 5760 5760 5761 5761 5762 5762 5763 5763 5764 5764 5764 5765 5765 5765 5765 5765 5764 5764 5763 5763 5762 5762 5761 5761 5761 5761 5761 5761 5761
5738 5740 5742 5743 5745 5746 5748 5749 5750 5750 5751 5751 5752 5752 5753 5754 5754 5755 5755 5756 5756 5756 5756 5757 5758 5758 5758 5759 5759 5759 5758 5758 5758 5758 5757 5757 5757 5756 5756 5756 5756 5756 5755
5731 5732 5734 5736 5737 5739 5740 5741 5742 5743 5743 5744 5745 5746 5746 5747 5748 5748 5749 5749 5749 5749 5749 5750 5750 5751 5751 5752 5752 5752 5752 5752 5752 5752 5752 5752 5751 5751 5751 5751 5750 5750 5750
5723 5724 5726 5728 5730 5731 5732 5733 5734 5735 5736 5737 5738 5738 5739 5740 5740 5741 5741 5741 5742 5742 5742 5742 5743 5743 5744 5744 5745 5745 5746 5745 5746 5746 5746 5746 5746 5746 5745 5745 5745 5744 5744
5714 5716 5718 5720 5722 5723 5724 5726 5727 5728 5729 5730 5730 5731 5732 5732 5732 5733 5733 5733 5734 5734 5734 5735 5735 5736 5736 5737 5738 5738 5739 5739 5739 5739 5739 5739 5739 5739 5739 5739 5738 5737 5737
5706 5708 5710 5712 5713 5715 5716 5718 5719 5720 5721 5722 5722 5723 5723 5724 5724 5725 5725 5725 5726 5726 5726 5727 5728 5728 5729 5730 5730 5731 5731 5732 5732 5732 5732 5732 5732 5732 5732 5732 5731 5730 5730
5698 5700 5702 5704 5705 5707 5708 5709 5710 5712 5713 5713 5714 5715 5715 5716 5716 5716 5717 5717 5717 5718 5718 5719 5719 5720 5721 5722 5722 5723 5723 5724 5724 5725 5725 5725 5725 5725 5724 5724 5724 5723 5722
5690 5691 5693 5695 5697 5698 5700 5701 5702 5703 5704 5705 5706 5706 5707 5707 5707 5708 5708 5708 5709 5709 5709 5710 5711 5712 5712 5713 5713 5714 5715 5715 5716 5717 5718 5717 5717 5717 5717 5716 5715 5714 5714
5681 5683 5685 5687 5688 5690 5691 5692 5693 5694 5695 5696 5697 5697 5698 5698 5698 5699 5699 5699 5700 5700 5700 5701 5702 5702 5703 5704 5705 5705 5706 5706 5707 5708 5709 5709 5709 5708 5708 5707 5707 5706 5705
5672 5674 5676 5678 5679 5681 5682 5683 5684 5685 5686 5687 5688 5689 5689 5690 5690 5690 5690 5690 5691 5691 5691 5692 5692 5693 5694 5695 5695 5696 5696 5697 5697 5698 5698 5699 5699 5699 5698 5698 5697 5696 5696